Terminal Aerodrome Forecast
Issued by NWS Boston, MA

Home | Current Version | Previous Version | Text Only | Print | Product List | Glossary On
Versions: 1 2 3 4 5 6 7 8 9 10 11 12 13 14 15 16 17 18 19 20 21 22 23 24
000
FTUS41 KBOX 032322
TAFBDL
TAF
KBDL 032322Z 0400/0506 36004KT P6SM OVC015
     FM040600 00000KT P6SM OVC015
     FM041400 05005KT P6SM VCSH OVC025
     FM042200 04007KT P6SM -RA OVC020
     FM042300 03007KT P6SM VCSH OVC020=

USA.gov is the U.S. government's official web portal to all federal, state and local government web resources and services.